Flag for Canada Weather past 2 weeks in Calgary, Alberta, Canada

Now
50 °F

Partly sunny.


Feels Like: 47 °F
Forecast: 36 / 49 °F
Wind: 8 mph from East

Location: Calgary International

Current Time: Jan 26, 2015 at 4:16:29 PM

Latest Report: Jan 26, 2015 at 3:00 PM


Visibility: 40 mi

Pressure: 29.84 "Hg

Humidity: 54%

Dew point: 34 °F

Location of CalgaryLocation

Historic Weather in Calgary — Graph

°F

Calgary temperature yesterday

Maximum temperature yesterday: 63 °F (at 3:00 PM)
Minimum temperature yesterday: 34 °F (at 12:00 AM)
Average temperature yesterday: 48 °F

Past Weeks' High & Low Weather Summary

 TemperatureHumidityPressure
High63 °F (Jan 25, 3:00 PM)93% (Jan 18, 9:00 AM)30.47 "Hg (Jan 18, 9:00 AM)
Low-4 °F (Jan 12, 4:00 AM)25% (Jan 15, 3:00 PM)29.47 "Hg (Jan 16, 8:00 AM)
Average37 °F49%30.02 "Hg
* Reported Jan 11 3:00 PM — Jan 26 3:00 PM, Calgary, Weather by CustomWeather, © 2014

Note: Actual official high and low records may vary slightly from our data, if they occured in-between our weather recording intervals... More about our weather records

Advertising

Calgary weather history for previous 24 hours

 ConditionsComfort  
Time TempWeatherWind HumidityBarometerVisibility
3:00 PM
Jan 26
50 °FPartly sunny.8 mph54%29.84 "Hg40 mi
2:00 PM54 °FPartly sunny.5 mph38%29.83 "Hg40 mi
1:00 PM52 °FPartly sunny.6 mph47%29.85 "Hg40 mi
12:00 PM52 °FPartly sunny.3 mph44%29.89 "Hg40 mi
11:00 AM46 °FPartly sunny.5 mph57%29.93 "Hg40 mi
10:00 AM39 °FPartly sunny.3 mph70%29.97 "Hg40 mi
9:00 AM39 °FBroken clouds.5 mph65%29.95 "Hg40 mi
8:00 AM41 °FPartly cloudy.5 mph61%29.95 "Hg15 mi
7:00 AM36 °FPassing clouds.No wind70%29.97 "Hg15 mi
6:00 AM37 °FPassing clouds.7 mph70%29.94 "Hg15 mi
5:00 AM41 °FPassing clouds.2 mph57%29.92 "Hg15 mi
4:00 AM39 °FClear.No wind65%29.92 "Hg15 mi
3:00 AM37 °FClear.6 mph70%29.93 "Hg15 mi
2:00 AM48 °FClear.8 mph43%29.92 "Hg15 mi
1:00 AM46 °FPassing clouds.5 mph46%29.94 "Hg15 mi
12:00 AM46 °FPassing clouds.6 mph50%29.95 "Hg15 mi
11:00 PM
Jan 25
45 °FPassing clouds.10 mph53%29.95 "Hg15 mi
10:00 PM39 °FPassing clouds.No wind70%29.98 "Hg15 mi
9:00 PM46 °FPassing clouds.10 mph53%29.98 "Hg15 mi
8:00 PM41 °FPassing clouds.3 mph66%29.99 "Hg15 mi
7:00 PM39 °FClear.7 mph70%29.97 "Hg15 mi
6:00 PM48 °FPassing clouds.7 mph58%29.95 "Hg15 mi
5:00 PM54 °FScattered clouds.6 mph41%29.89 "Hg30 mi
4:00 PM61 °FScattered clouds.10 mph31%29.84 "Hg40 mi
Weather by CustomWeather, © 2014

See weather overviewHow to use our weather pages